Regional Weather Roundup
Issued by NWS

Home | Current Version | Previous Version | Text Only | Print | Product List | Glossary Off
Versions: 1 2 3 4 5 6 7 8 9 10 11 12 13 14 15 16 17 18 19 20 21 22 23 24 25 26 27 28 29 30 31 32 33 34 35 36 37 38 39 40 41 42 43 44 45 46 47 48 49 50

709
ASUS45 KBOU 261409
RWRCO

WEATHER ROUNDUP FOR COLORADO
NATIONAL WEATHER SERVICE PUEBLO CO
800 AM MDT WED APR 26 2017

NOTE: "FAIR" INDICATES FEW OR NO CLOUDS BELOW 12000 FEET WITH NO
SIGNIFICANT WEATHER AND/OR OBSTRUCTIONS TO VISIBILITY.

COZ001>005-013-030-031-261500-
...NORTHWEST COLORADO...

CITY           SKY/WX    TMP DP  RH WIND       PRES   REMARKS
CRAIG          CLOUDY    34  30  85 E3        29.93R
HAYDEN         CLOUDY    32  27  80 SE3       29.92R
MEEKER         MIX PCPN  35  33  92 NE7       29.93R WCI  29
MOUNT WERNER   NOT AVBL
STEAMBOAT SPGS CLOUDY    32  29  89 E6        29.90F WCI  26
WALDEN           N/A     28  25  86 S3        29.90S
$$

COZ006>008-011-261500-
...WEST CENTRAL VALLEYS...

CITY           SKY/WX    TMP DP  RH WIND       PRES   REMARKS
GRAND JUNCTION PTSUNNY   40  38  93 S6        29.93R
MONTROSE       SUNNY     39  32  76 SE3       29.96R
EAGLE          CLOUDY    32  28  86 CALM      29.94S
RIFLE          CLOUDY    38  34  85 CALM      29.94R
DELTA          NOT AVBL
NUCLA          FAIR      37  32  81 E6        29.98S
$$

COZ017>023-064>068-261500-
...SOUTHWEST COLORADO...

CITY           SKY/WX    TMP DP  RH WIND       PRES   REMARKS
DURANGO        SUNNY     33  22  63 NE7       29.91R WCI  27
CORTEZ         SUNNY     35  28  75 E3        29.94R
PAGOSA SPRINGS FAIR      32  24  71 CALM      29.93R
TELLURIDE      CLOUDY    27  24  89 CALM      29.97S
WOLF CREEK PAS CLOUDY    19   9  63 NW6       29.99R WCI  11
$$

COZ009-010-012-014-032>034-037-058>063-261500-
...CENTRAL COLORADO...

CITY           SKY/WX    TMP DP  RH WIND       PRES   REMARKS
ASPEN          CLOUDY    32  27  81 SE3       29.91F
BUENA VISTA    FAIR      37  15  40 NW18G24   29.88S
COPPER MTN     LGT SNOW  19  14  79 MISG      29.90F
BERTHOUD PASS  CLOUDY    10   0  61 NW26G35   29.86S WCI -11
COTTONWOOD PAS CLOUDY    30  18  59 NW6       29.90R WCI  24
GUNNISON       SUNNY     33  25  72 CALM      29.93R
KREMMLING      CLOUDY    37  28  70 CALM      29.92S
LEADVILLE      CLOUDY    24  14  65 N7        29.90R WCI  16
MONARCH PASS   NOT AVBL
SALIDA         FAIR      39  19  44 NW7       29.95S
NIWOT RIDGE    NOT AVBL
SUNLIGHT       LGT SNOW N/A N/A N/A MISG      29.97S
WILKERSON PASS SUNNY     21  10  63 NW8       29.91R WCI  12
$$

COZ069>075-261500-
...SAN LUIS VALLEY/SANGRE DE CRISTO MOUNTAINS...

CITY           SKY/WX    TMP DP  RH WIND       PRES   REMARKS
ALAMOSA        SUNNY     36  27  69 N6        29.88R
LA VETA PASS   CLOUDY    23  21  93 S6        29.98R WCI  16
SAGUACHE       SUNNY     36  19  51 NW16G23   29.90R
$$

COZ035-036-038>040-261500-
...NORTHERN COLORADO FRONT RANGE...

CITY           SKY/WX    TMP DP  RH WIND       PRES   REMARKS
DENVER INTL AP SUNNY     35  28  75 SW12      29.83S WCI  27
DMNS CITY PARK NOT AVBL
AURORA         MOSUNNY   34  30  83 SW8       29.84R WCI  27
FRONT RANGE AP MOSUNNY   36  32  87 SW9       29.84R
ERIE MUNI ARPT FAIR      36  31  81 S7        29.84S
BOULDER MUN AP FAIR      37  30  75 CALM      29.83S
CENTENNIAL     MOSUNNY   34  28  79 SW3       29.84R
BROOMFIELD     MOSUNNY   36  30  80 S7        29.84R
LOVELAND       SUNNY     35  30  82 SW6       29.84S WCI  30
LONGMONT       FAIR      38  31  76 CALM      29.85F HAZE
$$

COZ041-046-047-076>085-087-088-261500-
...PIKES PEAK/PALMER DIVIDE AND SOUTHERN FOOTHILLS...

CITY           SKY/WX    TMP DP  RH WIND       PRES   REMARKS
COLO. SPRINGS  MOSUNNY   36  29  75 S3        29.85R
A. F. ACADEMY  MOSUNNY   33  28  80 NW5       29.83R WCI  29
ELLICOTT       NOT AVBL
FALCON         FAIR      32  25  74 N10       29.85R WCI  24
SCHRIEVER AFB  FAIR      35  30  81 S3        29.86R
FORT CARSON    MOSUNNY   36  31  84 NE5       29.85R
LIMON          SUNNY     34  28  79 NW18      29.83R WCI  23
MONUMENT HILL  FOG       27  27 100 W5        29.85S VSB<1/4 WCI  21
TRINIDAD       CLOUDY    36  31  82 E9        29.86R
$$

COZ042>045-048>051-090-091-261500-
...NORTHEAST COLORADO...

CITY           SKY/WX    TMP DP  RH WIND       PRES   REMARKS
GREELEY ARPT   SUNNY     37  28  70 SW6       29.86R
AKRON          MOSUNNY   34  28  79 NW18      29.83R WCI  23
BURLINGTON     NOT AVBL
WRAY           NOT AVBL
STERLING       FAIR      36  32  87 N14       29.84S
HOLYOKE        CLOUDY    34  30  86 N15       29.84S WCI  24
FORT MORGAN    FAIR      34  30  86 CALM      29.85S
$$

COZ086-089-092>099-261500-
...SOUTHEAST COLORADO...

CITY           SKY/WX    TMP DP  RH WIND       PRES   REMARKS
PUEBLO         SUNNY     39  31  72 SE6       29.86R
LA JUNTA       MOSUNNY   40  32  73 W6        29.87R
LAMAR          CLOUDY    38  30  73 N10       29.85R
SPRINGFIELD      N/A     36  33  89 NW15      29.83R
$$





USA.gov is the U.S. government's official web portal to all federal, state and local government web resources and services.